Terug naar catalogus

STARLINK-4012

ActiefCommunicatieVLEO
NORAD 52602·PAYLOAD·🇺🇸 United States

Gelanceerd May 14, 2022 vanaf Cape Canaveral Space Force Station

Loading…

Volgende Passages (komende 24 uur)

TLE

VersSource: CelesTrak SupGP

Epoch: Sep 14, 2026, 20:41 UTC

1 52602C 22052E   26257.86229167 -.00024480  00000+0 -70063-3 0  2574
2 52602  53.1600 141.9579 0001299  87.4731 161.9692 15.35400110    14

Volg STARLINK-4012 in realtime met AllMySat

Download on the App Store